• In Netherlands
  • List of Countries
  • For 7 days
  • Water Temperature
  • Satellite Maps
  • Weather Map
  • Weather Widgets
  • user-avatar
    Login

    Hourly Weather Herāt

    Today, 21 January, Saturday

    Time Temperature Precipitation Wind Pressure Humidity
    00:00 +6°C° 0.2 mm 2 mps 682 mmHg 65%
    01:00 +6°C° 0.2 mm 2 mps 682 mmHg 68%
    02:00 +6°C° 0 mm 2 mps 682 mmHg 68%
    03:00 +6°C° 0 mm 2 mps 681 mmHg 68%
    04:00 +6°C° 0 mm 2 mps 681 mmHg 67%
    05:00 +6°C° 0 mm 2 mps 681 mmHg 67%
    06:00 +6°C° 0 mm 2 mps 681 mmHg 66%
    07:00 +6°C° 0 mm 2 mps 681 mmHg 65%
    08:00 +6°C° 0.2 mm 2 mps 681 mmHg 63%
    09:00 +7°C° 0.2 mm 2 mps 681 mmHg 60%
    10:00 +8°C° 0.2 mm 3 mps 682 mmHg 57%
    11:00 +8°C° 0.8 mm 2 mps 681 mmHg 61%
    12:00 +8°C° 0.8 mm 2 mps 680 mmHg 65%
    13:00 +8°C° 0.8 mm 2 mps 680 mmHg 69%
    14:00 +7°C° 1 mm 2 mps 680 mmHg 71%
    15:00 +7°C° 1 mm 2 mps 679 mmHg 73%
    16:00 +8°C° 1 mm 1 mps 679 mmHg 75%
    17:00 +8°C° 0.9 mm 1 mps 679 mmHg 77%
    18:00 +8°C° 0.9 mm 1 mps 680 mmHg 78%
    19:00 +8°C° 0.9 mm 1 mps 680 mmHg 80%
    20:00 +7°C° 0.9 mm 2 mps 680 mmHg 81%
    21:00 +6°C° 0.9 mm 2 mps 680 mmHg 82%
    22:00 +6°C° 0.9 mm 2 mps 680 mmHg 83%
    23:00 +7°C° 0.4 mm 2 mps 680 mmHg 83%

    Tomorrow, 22 January, Sunday

    Time Temperature Precipitation Wind Pressure Humidity
    00:00 +7°C° 0.4 mm 2 mps 680 mmHg 83%
    01:00 +7°C° 0.4 mm 2 mps 680 mmHg 82%
    02:00 +7°C° 0.2 mm 2 mps 679 mmHg 82%
    03:00 +7°C° 0.2 mm 2 mps 679 mmHg 81%
    04:00 +7°C° 0.2 mm 2 mps 679 mmHg 81%
    05:00 +7°C° 0.7 mm 2 mps 679 mmHg 83%
    06:00 +7°C° 0.7 mm 2 mps 679 mmHg 85%
    07:00 +8°C° 0.7 mm 1 mps 680 mmHg 87%
    08:00 +7°C° 1.1 mm 2 mps 680 mmHg 87%
    09:00 +7°C° 1.1 mm 2 mps 680 mmHg 86%
    10:00 +8°C° 1.1 mm 2 mps 680 mmHg 86%
    11:00 +9°C° 0.2 mm 2 mps 680 mmHg 82%
    12:00 +10°C° 0.2 mm 3 mps 679 mmHg 78%
    13:00 +11°C° 0.2 mm 3 mps 679 mmHg 74%
    14:00 +11°C° 0.5 mm 3 mps 679 mmHg 73%
    15:00 +11°C° 0.5 mm 3 mps 678 mmHg 73%
    16:00 +11°C° 0.5 mm 3 mps 678 mmHg 72%
    17:00 +10°C° 0.9 mm 3 mps 678 mmHg 76%
    18:00 +9°C° 0.9 mm 2 mps 678 mmHg 79%
    19:00 +9°C° 0.9 mm 2 mps 678 mmHg 82%
    20:00 +8°C° 0.9 mm 2 mps 679 mmHg 83%
    21:00 +8°C° 0.9 mm 2 mps 679 mmHg 84%
    22:00 +8°C° 0.9 mm 2 mps 679 mmHg 85%
    23:00 +8°C° 0.6 mm 2 mps 679 mmHg 85%

    Day after tomorrow, 23 January, Monday

    Time Temperature Precipitation Wind Pressure Humidity
    00:00 +8°C° 0.6 mm 2 mps 679 mmHg 85%
    01:00 +7°C° 0.6 mm 2 mps 679 mmHg 85%
    02:00 +7°C° 0.7 mm 3 mps 680 mmHg 85%
    03:00 +7°C° 0.7 mm 3 mps 680 mmHg 86%
    04:00 +6°C° 0.7 mm 4 mps 680 mmHg 87%
    05:00 +5°C° 1.6 mm 5 mps 680 mmHg 86%
    06:00 +4°C° 1.6 mm 6 mps 680 mmHg 86%
    07:00 +2°C° 1.6 mm 8 mps 681 mmHg 85%
    08:00 +1°C° 1.6 mm 8 mps 681 mmHg 86%
    09:00 0°C° 1.6 mm 8 mps 682 mmHg 86%
    10:00 0°C° 1.6 mm 9 mps 682 mmHg 86%
    11:00 -1°C° 0.3 mm 9 mps 682 mmHg 85%
    12:00 -1°C° 0.3 mm 9 mps 682 mmHg 84%
    13:00 -1°C° 0.3 mm 9 mps 682 mmHg 83%
    14:00 -1°C° 0.1 mm 9 mps 683 mmHg 82%
    15:00 -1°C° 0.1 mm 9 mps 683 mmHg 81%
    16:00 -3°C° 0.1 mm 9 mps 683 mmHg 79%
    17:00 -3°C° 0.1 mm 9 mps 683 mmHg 80%
    18:00 -4°C° 0.1 mm 8 mps 684 mmHg 80%
    19:00 -4°C° 0.1 mm 8 mps 684 mmHg 80%
    20:00 -3°C° 0 mm 7 mps 684 mmHg 81%
    21:00 -3°C° 0 mm 7 mps 684 mmHg 81%
    22:00 -4°C° 0 mm 7 mps 685 mmHg 82%
    23:00 -4°C° 0 mm 7 mps 685 mmHg 82%

    24 January, Tuesday

    Time Temperature Precipitation Wind Pressure Humidity
    00:00 -4°C° 0 mm 6 mps 685 mmHg 82%
    01:00 -4°C° 0 mm 6 mps 685 mmHg 82%
    02:00 -4°C° 0 mm 6 mps 685 mmHg 81%
    03:00 -5°C° 0 mm 6 mps 685 mmHg 80%
    04:00 -5°C° 0 mm 6 mps 685 mmHg 79%
    05:00 -5°C° 0 mm 6 mps 685 mmHg 78%
    06:00 -5°C° 0 mm 6 mps 685 mmHg 77%
    07:00 -6°C° 0 mm 6 mps 685 mmHg 76%
    08:00 -5°C° 0 mm 6 mps 686 mmHg 73%
    09:00 -4°C° 0 mm 6 mps 686 mmHg 69%
    10:00 -3°C° 0 mm 6 mps 686 mmHg 65%
    11:00 -2°C° 0 mm 6 mps 686 mmHg 64%
    12:00 -2°C° 0 mm 6 mps 685 mmHg 63%
    13:00 -1°C° 0 mm 6 mps 685 mmHg 61%
    14:00 -2°C° 0 mm 6 mps 684 mmHg 63%
    15:00 -3°C° 0 mm 6 mps 684 mmHg 65%
    16:00 -3°C° 0 mm 6 mps 684 mmHg 67%
    17:00 -4°C° 0 mm 6 mps 684 mmHg 69%
    18:00 -5°C° 0 mm 5 mps 684 mmHg 72%
    19:00 -6°C° 0 mm 5 mps 684 mmHg 74%
    20:00 -5°C° 0 mm 4 mps 684 mmHg 75%
    21:00 -7°C° 0 mm 4 mps 684 mmHg 75%
    22:00 -7°C° 0 mm 4 mps 684 mmHg 75%
    23:00 -7°C° 0 mm 4 mps 683 mmHg 76%

    25 January, Wednesday

    Time Temperature Precipitation Wind Pressure Humidity
    00:00 -7°C° 0 mm 4 mps 683 mmHg 76%
    01:00 -6°C° 0 mm 3 mps 683 mmHg 76%
    02:00 -6°C° 0 mm 3 mps 682 mmHg 75%
    03:00 -6°C° 0 mm 3 mps 682 mmHg 74%
    04:00 -6°C° 0 mm 3 mps 682 mmHg 73%
    05:00 -6°C° 0 mm 3 mps 682 mmHg 73%
    06:00 -6°C° 0 mm 3 mps 682 mmHg 72%
    07:00 -5°C° 0 mm 2 mps 682 mmHg 71%
    08:00 -4°C° 0 mm 2 mps 682 mmHg 67%
    09:00 -3°C° 0 mm 2 mps 682 mmHg 63%
    10:00 +1°C° 0 mm 1 mps 682 mmHg 59%
    11:00 +1°C° 0 mm 2 mps 682 mmHg 58%
    12:00 +1°C° 0 mm 2 mps 681 mmHg 56%
    13:00 +2°C° 0 mm 2 mps 681 mmHg 55%
    14:00 +2°C° 0 mm 2 mps 681 mmHg 56%
    15:00 +1°C° 0 mm 2 mps 680 mmHg 57%
    16:00 +1°C° 0 mm 2 mps 680 mmHg 59%
    17:00 +1°C° 0 mm 1 mps 680 mmHg 61%
    18:00 0°C° 0 mm 1 mps 680 mmHg 64%
    19:00 -2°C° 0 mm 1 mps 680 mmHg 67%
    20:00 -1°C° 0 mm 1 mps 680 mmHg 65%
    21:00 -1°C° 0 mm 1 mps 680 mmHg 63%
    22:00 -3°C° 0 mm 2 mps 680 mmHg 61%
    23:00 -3°C° 0 mm 2 mps 680 mmHg 60%

    26 January, Thursday

    Time Temperature Precipitation Wind Pressure Humidity
    00:00 -3°C° 0 mm 2 mps 680 mmHg 60%
    01:00 -2°C° 0 mm 3 mps 680 mmHg 59%
    02:00 -2°C° 0 mm 3 mps 679 mmHg 58%
    03:00 -2°C° 0 mm 3 mps 679 mmHg 56%
    04:00 -2°C° 0 mm 3 mps 679 mmHg 54%
    05:00 -2°C° 0 mm 3 mps 680 mmHg 51%
    06:00 -3°C° 0 mm 4 mps 680 mmHg 48%
    07:00 -3°C° 0 mm 4 mps 680 mmHg 45%
    08:00 -1°C° 0 mm 4 mps 681 mmHg 41%
    09:00 +1°C° 0 mm 5 mps 681 mmHg 37%
    10:00 +3°C° 0 mm 5 mps 681 mmHg 33%
    11:00 +5°C° 0 mm 5 mps 681 mmHg 33%
    12:00 +6°C° 0 mm 5 mps 680 mmHg 34%
    13:00 +5°C° 0 mm 6 mps 680 mmHg 34%
    14:00 +6°C° 0 mm 5 mps 680 mmHg 37%
    15:00 +6°C° 0 mm 5 mps 679 mmHg 39%
    16:00 +5°C° 0 mm 4 mps 679 mmHg 42%
    17:00 +4°C° 0 mm 4 mps 679 mmHg 43%
    18:00 +4°C° 0 mm 4 mps 679 mmHg 45%
    19:00 +3°C° 0 mm 4 mps 680 mmHg 46%
    20:00 +3°C° 0 mm 4 mps 680 mmHg 46%
    21:00 +3°C° 0 mm 4 mps 680 mmHg 47%
    22:00 +3°C° 0 mm 4 mps 680 mmHg 47%
    23:00 +3°C° 0 mm 4 mps 679 mmHg 49%
    Show more